Nantucket, MA

6:00 PM EST on February 13, 2016 (GMT -0500)
Nantucket Memorial

Weather History for KACK - March, 2014

Change the Weather History Date:

Wednesday, March 5, 2014

  Actual Average Record
Temperature  
Mean Temperature 30 °F -  
Max Temperature 36 °F 43 °F 55 °F (1974)
Min Temperature 25 °F 32 °F 15 °F (1950)
Degree Days  
Heating Degree Days 34    
Moisture  
Dew Point 20 °F    
Average Humidity 68    
Maximum Humidity 82    
Minimum Humidity 48    
Precipitation  
Precipitation 0.00 in - - ()
Sea Level Pressure  
Sea Level Pressure 30.27 in    
Wind  
Wind Speed 9 mph (North)    
Max Wind Speed 25 mph    
Max Gust Speed 32 mph    
Visibility 9 miles    
Events Snow    
Averages and records for this station are not official NWS values.
T = Trace of Precipitation, MM = Missing Value Source: NWS Daily Summary

Daily Weather History Graph

Daily Weather History Graph

Search for Another Location

Airport or City:

Trip Planner

Search our weather history database for the weather conditions in past years. The results will help you decide how hot, cold, wet, or windy it might be!

Date:

Astronomy

Mar. 05, 2014 Rise Set
Actual Time 6:08 AM EST 5:35 PM EST
Civil Twilight 5:40 AM EST 6:03 PM EST
Nautical Twilight 5:08 AM EST 6:35 PM EST
Astronomical Twilight 4:36 AM EST 7:07 PM EST
Moon 8:28 AM EST (3/5) 10:44 PM EST (3/5)
Length of Visible Light 12h 22m
Length of Day
11h 27m
Waxing Crescent, 23% of the Moon is Illuminated
Mar 5
Waxing Crescent
Mar 8
First Quarter
Mar 16
Full
Mar 23
Last Quarter
Mar 30
New

Hourly Weather History & Observations

Time (EST) Temp. Windchill Dew Point Humidity Pressure Visibility Wind Dir Wind Speed Gust Speed Precip Events Conditions
12:53 AM 25.0 °F - 16.0 °F 69% 30.25 in 10.0 mi Calm Calm - N/A   Scattered Clouds
1:53 AM 25.0 °F 20.7 °F 16.0 °F 69% 30.25 in 10.0 mi NW 3.5 mph - N/A   Scattered Clouds
2:53 AM 26.1 °F 20.5 °F 17.1 °F 69% 30.23 in 10.0 mi NW 4.6 mph - N/A   Clear
3:53 AM 27.0 °F 21.6 °F 17.1 °F 66% 30.23 in 10.0 mi NNW 4.6 mph - N/A   Clear
4:53 AM 25.0 °F 20.7 °F 17.1 °F 72% 30.22 in 10.0 mi North 3.5 mph - N/A   Clear
5:53 AM 27.0 °F - 17.1 °F 66% 30.24 in 10.0 mi Calm Calm - N/A   Mostly Cloudy
6:53 AM 27.0 °F - 18.0 °F 69% 30.25 in 10.0 mi Calm Calm - N/A   Overcast
7:53 AM 30.0 °F 24.1 °F 16.0 °F 56% 30.26 in 10.0 mi NNE 5.8 mph - N/A   Overcast
8:53 AM 30.9 °F 22.2 °F 14.0 °F 50% 30.26 in 10.0 mi North 10.4 mph - N/A   Overcast
9:53 AM 33.1 °F 24.9 °F 16.0 °F 50% 30.25 in 10.0 mi NNE 10.4 mph - N/A   Overcast
10:53 AM 35.1 °F 26.9 °F 17.1 °F 48% 30.24 in 10.0 mi North 11.5 mph - N/A   Mostly Cloudy
11:53 AM 35.1 °F 26.4 °F 21.0 °F 57% 30.23 in 10.0 mi North 12.7 mph - N/A   Mostly Cloudy
12:53 PM 34.0 °F 25.0 °F 19.0 °F 54% 30.22 in 10.0 mi North 12.7 mph 19.6 mph N/A   Overcast
1:53 PM 36.0 °F 28.5 °F 19.0 °F 50% 30.21 in 10.0 mi North 10.4 mph - N/A   Overcast
2:53 PM 34.0 °F 24.2 °F 21.0 °F 59% 30.22 in 10.0 mi NNW 15.0 mph - N/A   Mostly Cloudy
3:53 PM 33.1 °F 24.4 °F 23.0 °F 66% 30.23 in 10.0 mi NNW 11.5 mph - N/A   Mostly Cloudy
4:30 PM 32.0 °F 23.0 °F 24.8 °F 75% 30.24 in 6.0 mi North 11.5 mph - 0.00 in Snow Light Snow
4:53 PM 32.0 °F 20.8 °F 24.1 °F 73% 30.25 in 10.0 mi North 17.3 mph - 0.00 in   Overcast
5:00 PM 32.0 °F 21.2 °F 24.8 °F 75% 30.26 in 10.0 mi North 16.1 mph - N/A   Overcast
5:53 PM 30.9 °F 20.2 °F 24.1 °F 76% 30.27 in 9.0 mi North 15.0 mph - N/A   Overcast
6:12 PM 30.2 °F 18.1 °F 24.8 °F 80% 30.28 in 3.0 mi North 18.4 mph 24.2 mph 0.00 in Snow Light Snow
6:22 PM 30.2 °F 17.1 °F 24.8 °F 80% 30.28 in 2.5 mi North 21.9 mph 28.8 mph 0.00 in Snow Light Snow
6:53 PM 30.0 °F 16.3 °F 25.0 °F 82% 30.28 in 3.0 mi NNE 24.2 mph 29.9 mph 0.00 in Snow Light Snow
7:02 PM 30.2 °F 17.8 °F 24.8 °F 80% 30.29 in 3.0 mi North 19.6 mph 32.2 mph 0.00 in Snow Light Snow
7:53 PM 28.9 °F 15.1 °F 23.0 °F 78% 30.31 in 10.0 mi North 23.0 mph 29.9 mph 0.00 in   Overcast
8:53 PM 28.0 °F 13.9 °F 21.9 °F 78% 30.35 in 5.0 mi North 23.0 mph 28.8 mph 0.00 in Snow Light Snow
9:28 PM 26.6 °F 12.0 °F 19.4 °F 74% 30.36 in 10.0 mi North 23.0 mph 27.6 mph 0.00 in   Overcast
9:35 PM 26.6 °F 11.4 °F 19.4 °F 74% 30.37 in 10.0 mi North 25.3 mph 31.1 mph 0.00 in   Overcast
9:53 PM 27.0 °F 12.5 °F 19.0 °F 72% 30.37 in 9.0 mi North 23.0 mph 29.9 mph 0.00 in Snow Light Snow
10:53 PM 26.1 °F 12.7 °F 17.1 °F 69% 30.38 in 10.0 mi North 18.4 mph 28.8 mph 0.00 in   Overcast
11:53 PM 25.0 °F 11.3 °F 15.1 °F 66% 30.39 in 10.0 mi North 18.4 mph 32.2 mph N/A   Partly Cloudy